www.pogodaiklimat.ru

Погода и климат >> Архив погоды >> Алжир >> In Amenas


ПОГОДА в In Amenas

  • Прогноз погоды в In Amenas
  • Монитор погоды в In Amenas
  • Климат города

АРХИВ ПОГОДЫ в In Amenas

Время (UTC), дата Ветер
(напр.,м/с)
 
Видим.   Явления Облачность Т
(С)
Тd
(С)
f
(%)
Тe
(С)
Тes
(С)
Комфортность P
(гПа)
Po
(гПа)
Тmin
(С)
Tmax
(С)
R
(мм)
R24
(мм)
S
(см)
03 16.07 С 4 10 км ясно +30.1 +2.7 17 +28 +28 жарко 1010.3 1010.0
06 16.07 С 3 10 км ясно +29.1 +1.2 17 +27 +29 жарко 1011.4 1011.0 +27.5
09 16.07 СЗ 7 10 км ясно +38.6 +1.6 10 +35 +40 очень
жарко
1011.4 1011.0
12 16.07 С 9 6000 м пыльный позёмок ясно +42.1 +37 +39 очень
жарко
1010.1 1010.0
15 16.07 С 10 5000 м пыльный позёмок ясно +42.9 +38 +38 очень
жарко
1008.2 1008.0
18 16.07 СВ 11 4000 м пыльный позёмок ясно +40.3 +35 +35 очень
жарко
1008.7 1009.0 +43.9
21 16.07 СВ 8 5000 м ясно +35.0 +1.2 12 +32 +32 жарко 1010.3 1010.0
00 17.07 СВ 7 5000 м ясно +31.7 +3.6 17 +29 +29 жарко 1010.6 1011.0
03 17.07 СВ 2 8000 м ясно +24.1 +5.1 29 +24 +24 комфорт 1010.9 1011.0
06 17.07 В 4 10 км ясно +27.1 +7.5 29 +27 +28 жарко 1011.9 1012.0 +25.3
09 17.07 В 7 8000 м ясно +34.5 +2.7 14 +32 +36 жарко 1011.8 1012.0
12 17.07 ЮВ 4 8000 м ясно +38.8 +34 +48 очень
жарко
1010.5 1011.0
15 17.07 В 6 8000 м ясно +41.2 +36 +40 очень
жарко
1009.4 1009.0
18 17.07 В 9 7000 м ясно +38.4 +33 +33 жарко 1009.9 1010.0 +41.6
21 17.07 В 4 7000 м ясно +33.1 +2.1 14 +30 +30 жарко 1011.2 1011.0
00 18.07 В 3 8000 м ясно +29.0 +1.7 17 +27 +27 жарко 1011.0 1011.0
03 18.07 СВ 3 8000 м ясно +25.6 +0.2 19 +24 +24 комфорт 1011.1 1011.0
06 18.07 СВ 2 10 км ясно +27.1 +0.8 18 +25 +27 комфорт 1012.3 1012.0 +25.0
09 18.07 ЮВ 5 10 км ясно +37.3 +0.6 10 +34 +42 очень
жарко
1012.4 1012.0
12 18.07 ЮВ 4 10 км ясно +40.6 -1.9 7 +37 +51 опасность
солнечного
удара
1010.4 1010.0
15 18.07 В 5 10 км ясно +42.2 -5.1 5 +38 +43 очень
жарко
1008.8 1009.0
18 18.07 ЮВ 5 10 км ясно +40.3 +1.4 9 +37 +37 очень
жарко
1010.5 1011.0 +42.9
21 18.07 ЮВ 3 10 км ясно +33.8 -3.5 9 +30 +30 жарко 1011.2 1011.0
00 19.07 С 3 10 км ясно +29.0 -5.5 10 +26 +26 жарко 1010.8 1011.0
03 19.07 СЗ 2 10 км ясно +27.3 -3.4 13 +25 +25 комфорт 1010.7 1011.0
06 19.07 штиль 0 10 км 4/0
[Ac trans]
+29.2 -3.5 12 +26 +28 жарко 1011.6 1012.0 +26.8
09 19.07 З 4 10 км ясно +40.1 +1.2 9 +36 +48 очень
жарко
1011.2 1011.0
12 19.07 СВ 5 10 км 5/4 1380 м
[Cu med, cong Ac trans]
+43.1 +3.4 9 +40 +47 очень
жарко
1009.9 1010.0
15 19.07 З 8 8000 м пыльный позёмок 8/5 1380 м
[Cu med, cong Ac trans]
+43.3 +3.6 9 +40 +41 очень
жарко
1008.6 1009.0
18 19.07 С 6 8000 м 8/5 1200 м
[Cu Sc Ac trans]
+41.4 -3.4 6 +37 +37 очень
жарко
1007.6 1008.0 +44.5
21 19.07 С 5 8000 м 6/3 1380 м
[Cu hum Ac trans]
+35.8 -2.0 9 +32 +32 жарко 1010.0 1010.0
00 20.07 СВ 4 10 км 6/3 1380 м
[Cu hum Ac trans]
+31.1 -1.7 12 +28 +28 жарко 1010.8 1011.0
03 20.07 В 4 10 км 4/0
[Ac trans]
+29.2 -1.1 14 +26 +26 жарко 1010.7 1011.0
06 20.07 СВ 3 10 км ясно +29.0 -2.2 13 +26 +28 жарко 1012.3 1012.0 +26.9
09 20.07 ЮВ 7 10 км ясно +37.2 +1.1 10 +34 +38 очень
жарко
1011.2 1011.0
12 20.07 В 4 10 км ясно +41.9 +2.6 9 +38 +54 опасность
солнечного
удара
1009.9 1010.0
15 20.07 ЮВ 2 10 км ясно +42.8 +3.2 9 +40 +49 очень
жарко
1008.9 1009.0
18 20.07 В 5 7000 м ясно +40.9 +1.8 9 +37 +37 очень
жарко
1008.4 1008.0 +43.1
21 20.07 В 3 7000 м ясно +34.8 -2.7 9 +31 +31 жарко 1009.8 1010.0
00 21.07 СВ 3 8000 м ясно +30.8 -4.3 10 +27 +27 жарко 1009.2 1009.0
03 21.07 СВ 4 8000 м ясно +28.0 -2.9 13 +25 +25 комфорт 1009.4 1009.0
06 21.07 СВ 4 8000 м ясно +28.9 -0.1 15 +26 +28 жарко 1011.4 1011.0 +27.1
09 21.07 В 6 8000 м ясно +37.7 +0.8 10 +34 +41 очень
жарко
1011.6 1012.0
12 21.07 С 4 8000 м ясно +41.4 -1.1 7 +37 +51 опасность
солнечного
удара
1009.5 1010.0
15 21.07 СВ 6 8000 м ясно +42.9 -2.3 6 +39 +43 очень
жарко
1007.5 1008.0
18 21.07 СВ 7 8000 м ясно +40.8 +1.7 9 +37 +37 очень
жарко
1008.9 1009.0 +43.0
21 21.07 СВ 4 8000 м ясно +34.5 -2.9 9 +31 +31 жарко 1010.8 1011.0
00 22.07 СВ 3 8000 м ясно +30.0 -4.6 10 +26 +26 жарко 1011.0 1011.0
03 22.07 В 3 10 км ясно +27.4 -3.1 13 +25 +25 комфорт 1010.5 1011.0
06 22.07 СВ 2 10 км ясно +26.1 -2.0 16 +24 +26 комфорт 1012.3 1012.0 +24.6
09 22.07 В 8 10 км ясно +34.6 +2.1 13 +31 +34 жарко 1012.5 1013.0
12 22.07 В 6 10 км ясно +39.8 +1.0 9 +36 +44 очень
жарко
1011.0 1011.0
15 22.07 В 8 8000 м ясно +41.0 +1.9 9 +37 +39 очень
жарко
1009.4 1009.0
18 22.07 СВ 7 10 км ясно +38.4 0.0 9 +35 +35 очень
жарко
1010.0 1010.0 +41.8
21 22.07 СВ 3 10 км ясно +31.3 -2.7 11 +28 +28 жарко 1011.2 1011.0
00 23.07 СВ 4 10 км ясно +26.7 -4.0 13 +24 +24 комфорт 1010.9 1011.0

 

Местоположение метеостанции In Amenas (Алжир): широта 28.05 долгота 9.63 высота над уровнем моря 562 м.

В архиве по умолчанию представлена погода в In Amenas за последнюю неделю. Архивные данные за месяц целиком и за предыдущие месяцы, начиная с января 2011 года, Вы можете получить, выбрав интересующий диапазон дат из раскрывающегося списка и нажав кнопку "Ввод!".


*Определитесь, кто Вы:
робот инопланетянин человек

Внимание! Время в таблицах - всемирное. Для получения местного времени необходимо прибавить поправку, которая в In Amenas равна 1 ч.

Смотрите также архив погоды в соседних городах и на ближайших метеорологических станциях:

Погода в Tin Fouye (Алжир) (208 км)
Погода в Illizi (Алжир) (210 км)
Погода в Ghadames (Ливия) (232 км)
Погода в Fadnoune (Алжир) (287 км)
Погода в Rhourde-Nouss (Алжир) (340 км)
Погода в El Hamada (Ливия) (361 км)
Погода в Bordj Haous (Алжир) (381 км)
Погода в Tinalkoum (Алжир) (388 км)
Погода в El Borma (Тунис) (406 км)
Погода в Djanet (Алжир) (421 км)

Пояснения к столбцам:

Ветер - указаны скорость ветра в м/с - средняя за 10 мин, порывы в срок и между сроками (в фигурных скобках) и направление, откуда дует ветер: С - северный, СВ - северо-восточный, В - восточный, ЮВ - юго-восточный, Ю - южный, ЮЗ - юго-западный, З - западный, СЗ - северо-западный.
Видимость - горизонтальная дальность видимости в метрах или километрах. При видимости от 1 до 10 км при отсутствии осадков обычно наблюдается дымка, при ухудшении видимости до 1 км и менее - туман. В сухую погоду видимость может ухудшаться дымом, пылью или мглою.
Явления - указаны атмосферные явления, наблюдавшиеся в срок или в последний час перед сроком; фигурными скобками обозначены явления, наблюдавшиеся между сроками (за 1-3 часа до срока); квадратными скобками обозначены град или гололедные отложения с указанием их диаметра в мм.
Облачность - указаны через наклонную черту общая и нижняя облачность в баллах и высота нижней границы облаков в метрах; квадратными скобками обозначены формы облаков: Ci - перистые, Cs - перисто-слоистые, Cc - перисто-кучевые, Ac - высококучевые, As - высокослоистые, Sc - слоисто-кучевые, Ns - слоисто-дождевые, Cu - кучевые, Cb - кучево-дождевые. Подробнее классификацию облаков см. в Атласе облаков (PDF).
T - Температура воздуха - температура, измеренная на высоте 2 м над землей.
Td - Температура точки росы - температура, при понижении до которой содержащийся в воздухе водяной пар достигнет насыщения.
f - Относительная влажность воздуха - влажноcть воздуха, измеренная на высоте 2 м над землей.
Te - Эффективная температура - температура, которую ощущает одетый по сезону человек в тени. Характеристика душности погоды. При расчете учитывается влияние влажности воздуха и скорости ветра на теплоощущения человека.
Tes - Эффективная температура на солнце - температура, которую ощущает человек, с поправкой на солнечный нагрев. Характеристика знойности погоды. Зависит от высоты солнца над горизонтом, облачности и скорости ветра. Ночью, в пасмурную погоду, а также при ветре 12 м/с и более поправка равна нулю.
P - Атмосферное давление - приведенное к уровню моря атмосферное давление.
Po - Атмосферное давление - измеренное на уровне метеостанции атмосферное давление.
Tmin - Минимальная температура - минимум температуры воздуха на высоте 2 м над землей.
Tmax - Максимальная температура - максимум температуры воздуха на высоте 2 м над землей.
R - Количество осадков - Количество выпавших осадков за период времени, мм. При наведении курсора мыши на число - период времени, за который выпало указанное количество осадков.
R24 - Количество осадков - Количество выпавших осадков за 24 часа, мм.
S - Снежный покров - Высота снежного покрова, см. При наведении курсора мыши на число - состояние снежного покрова и степень покрытия местности в баллах.